Location: ??? ???
(33.4974°N, 35.4618°E)
Time: 01:32:35
(UTC+00:00)

Cosmos 1697 Rocket - Pass Details

Date: 29 October 2020
Orbit: 831 x 845 km, 71.0° (Epoch: 25 November)

Event Time Altitude Azimuth Distance (km) Brightness Sun altitude
Rises 15:20:39 0° 186° (S) 3,358 6.1 -7.3°
Reaches altitude 10° 15:23:07 10° 182° (S) 2,429 5.3 -7.8°
Maximum altitude 15:28:31 53° 106° (ESE) 1,015 2.8 -8.9°
Drops below altitude 10° 15:33:57 10° 31° (NNE) 2,449 4.7 -10.0°
Sets 15:36:26 0° 27° (NNE) 3,388 5.5 -10.5°
